Terminal Aerodrome Forecast
Issued by NWS Tulsa, OK

Home | Current Version | Previous Version | Text Only | Print | Product List | Glossary On
Versions: 1 2 3 4 5 6 7 8 9 10 11 12 13 14 15 16 17 18 19 20 21 22 23
000
FTUS44 KTSA 271700
TAFFSM
TAF
KFSM 271720Z 2718/2818 VRB04KT P6SM SKC
     FM280300 08003KT P6SM FEW250
     FM281600 10007KT P6SM SCT250=

USA.gov is the U.S. government's official web portal to all federal, state and local government web resources and services.